Location: Wells
(51.2093°N, 2.6446°W)
Time: 08:29:32
(UTC+01:00)

SO-50 - Pass Details

Date: 19 March 2026
Orbit: 567 x 673 km, 64.6° (Epoch: 17 April)

Event Time Altitude Azimuth Distance (km) Brightness Sun altitude
Rises 00:13:10 0° 318° (NW) 3,029 ? -39.4°
Reaches altitude 10° 00:15:36 10° 325° (NW) 2,115 ? -39.4°
Enters shadow 00:15:42 11° 325° (NW) 2,078 ? -39.4°
